Powrót do katalogu

THORAD AGENA D DEB

AktywnySSO
NORAD 4859·DEBRIS·🇺🇸 United States

Wystrzelony Apr 8, 1970 z Vandenberg Space Force Base

Loading…

Następne Przeloty

TLE

Source: Space-Track
1 04859U 70025EP  26230.25335964  .00000288  00000-0  43528-3 0  9993
2 04859  99.9484 330.2715 0050685 145.7131 242.7043 13.61284362776163

Śledź THORAD AGENA D DEB w czasie rzeczywistym z AllMySat

Download on the App Store